Weather History for Savannah, GA

Change the Weather History Date:

Tuesday, April 24, 2012

  Actual Average Record
Temperature  
Mean Temperature 56 °F 68 °F  
Max Temperature 72 °F 80 °F 94 °F (1958)
Min Temperature 40 °F 56 °F 38 °F (1986)
Degree Days  
Heating Degree Days 9 2  
Month to date heating degree days 55 70  
Since 1 July heating degree days 1277 1797  
Cooling Degree Days 0 4  
Month to date cooling degree days 111 67  
Year to date cooling degree days 262 109  
Growing Degree Days 6 (Base 50)    
Moisture  
Dew Point 34 °F    
Average Humidity 52    
Maximum Humidity 79    
Minimum Humidity 24    
Precipitation  
Precipitation 0.00 in 0.09 in 1.55 in (1941)
Month to date precipitation 0.48 2.54  
Year to date precipitation 9.13 12.75  
Snow  
Snow 0.00 in 0.00 in - ()
Month to date snowfall 0.0  
Since 1 July snowfall 0.0 0.3  
Snow Depth 0.00 in    
Sea Level Pressure  
Sea Level Pressure 29.89 in    
Wind  
Wind Speed 11 mph (West)    
Max Wind Speed 28 mph    
Max Gust Speed 36 mph    
Visibility 10 miles    
Events      
T = Trace of Precipitation, MM = Missing Value Source: NWS Daily Summary

Daily Weather History Graph

Daily Weather History Graph

Search for Another Location

Airport:

Trip Planner

Search our weather history database for the weather conditions in past years. The results will help you decide how hot, cold, wet, or windy it might be!

Date:

Astronomy

Apr. 24, 2012 Rise Set
Actual Time 6:45 AM EDT 8:00 PM EDT
Civil Twilight 6:19 AM EDT 8:26 PM EDT
Nautical Twilight 5:49 AM EDT 8:57 PM EDT
Astronomical Twilight 5:17 AM EDT 9:28 PM EDT
Moon 8:48 AM EDT (4/24) 11:11 PM EDT (4/24)
Length of Visible Light 14h 06m
Length of Day
13h 15m
Waxing Crescent, 10% of the Moon is Illuminated
Apr 24
Waxing Crescent
Apr 29
First Quarter
May 5
Full
May 12
Last Quarter
May 20
New

Hourly Weather History & Observations

Time (EDT) Temp. Windchill Dew Point Humidity Pressure Visibility Wind Dir Wind Speed Gust Speed Precip Events Conditions
12:53 AM 48.9 °F - 33.1 °F 54% 29.86 in 10.0 mi West 10.4 mph - N/A   Partly Cloudy
1:53 AM 48.0 °F - 32.0 °F 54% 29.86 in 10.0 mi West 8.1 mph - N/A   Clear
2:53 AM 45.0 °F 41.2 °F 33.1 °F 63% 29.86 in 10.0 mi West 6.9 mph - N/A   Clear
3:53 AM 44.1 °F 40.1 °F 33.1 °F 65% 29.86 in 10.0 mi West 6.9 mph - N/A   Clear
4:53 AM 42.1 °F 37.7 °F 33.1 °F 70% 29.87 in 10.0 mi West 6.9 mph - N/A   Clear
5:53 AM 41.0 °F 36.4 °F 33.1 °F 73% 29.88 in 10.0 mi West 6.9 mph - N/A   Clear
6:53 AM 39.9 °F 35.1 °F 33.1 °F 77% 29.90 in 10.0 mi West 6.9 mph - N/A   Clear
7:53 AM 44.1 °F 39.5 °F 34.0 °F 68% 29.92 in 10.0 mi West 8.1 mph - N/A   Clear
8:53 AM 52.0 °F - 33.1 °F 49% 29.94 in 10.0 mi WNW 11.5 mph - N/A   Clear
9:53 AM 57.0 °F - 34.0 °F 42% 29.94 in 10.0 mi WNW 9.2 mph 17.3 mph N/A   Clear
10:53 AM 62.1 °F - 34.0 °F 35% 29.94 in 10.0 mi NW 12.7 mph 23.0 mph N/A   Clear
11:53 AM 66.0 °F - 28.0 °F 24% 29.92 in 10.0 mi WNW 17.3 mph 28.8 mph N/A   Partly Cloudy
12:53 PM 68.0 °F - 30.0 °F 24% 29.90 in 10.0 mi NW 16.1 mph 26.5 mph N/A   Scattered Clouds
1:53 PM 68.0 °F - 30.9 °F 25% 29.88 in 10.0 mi WNW 17.3 mph 31.1 mph N/A   Scattered Clouds
2:53 PM 70.0 °F - 32.0 °F 25% 29.87 in 10.0 mi WNW 21.9 mph 29.9 mph N/A   Scattered Clouds
3:53 PM 69.1 °F - 33.1 °F 26% 29.86 in 10.0 mi West 20.7 mph 24.2 mph N/A   Scattered Clouds
4:53 PM 70.0 °F - 32.0 °F 25% 29.85 in 10.0 mi WNW 24.2 mph 35.7 mph N/A   Scattered Clouds
5:53 PM 69.1 °F - 33.1 °F 26% 29.86 in 10.0 mi WNW 16.1 mph 24.2 mph N/A   Mostly Cloudy
6:53 PM 69.1 °F - 34.0 °F 27% 29.86 in 10.0 mi West 12.7 mph - N/A   Scattered Clouds
7:53 PM 66.0 °F - 35.1 °F 32% 29.88 in 10.0 mi WNW 9.2 mph - N/A   Partly Cloudy
8:53 PM 60.1 °F - 37.0 °F 42% 29.90 in 10.0 mi West 4.6 mph - N/A   Clear
9:53 PM 59.0 °F - 37.9 °F 46% 29.92 in 10.0 mi Calm Calm - N/A   Clear
10:53 PM 55.9 °F - 39.9 °F 55% 29.94 in 10.0 mi SSW 3.5 mph - N/A   Clear
11:53 PM 53.1 °F - 39.9 °F 61% 29.95 in 10.0 mi WSW 3.5 mph - N/A   Clear